Michigan City, IN

1:29 PM CST on February 25, 2017 (GMT -0600)
Michigan City Municipal

Weather History for KMGC - January, 2013

Change the Weather History Date:

Saturday, January 19, 2013

  Actual Average (KSBN) Record (KSBN)
Temperature  
Mean Temperature 42 °F -  
Max Temperature 50 °F 31 °F 60 °F (1907)
Min Temperature 32 °F 14 °F -21 °F (1994)
Degree Days  
Heating Degree Days 22    
Moisture  
Dew Point 30 °F    
Average Humidity 63    
Maximum Humidity 70    
Minimum Humidity 48    
Precipitation  
Precipitation 0.00 in - - ()
Sea Level Pressure  
Sea Level Pressure 29.84 in    
Wind  
Wind Speed 18 mph (SW)    
Max Wind Speed 26 mph    
Max Gust Speed 41 mph    
Visibility 10 miles    
Events      
Averages and records for this station are not official NWS values.
T = Trace of Precipitation, MM = Missing Value Source: NWS Daily Summary

Daily Weather History Graph

Daily Weather History Graph

Search for Another Location

Airport or City:

Trip Planner

Search our weather history database for the weather conditions in past years. The results will help you decide how hot, cold, wet, or windy it might be!

Date:

Astronomy

Jan. 19, 2013 Rise Set
Actual Time 7:09 AM CST 4:46 PM CST
Civil Twilight 6:39 AM CST 5:17 PM CST
Nautical Twilight 6:05 AM CST 5:51 PM CST
Astronomical Twilight 5:32 AM CST 6:24 PM CST
Moon 11:13 AM CST (1/19) 12:42 AM CST (1/19)
Length of Visible Light 10h 37m
Length of Day
9h 37m
First Quarter, 57% of the Moon is Illuminated
Jan 19
First Quarter
Jan 26
Full
Feb 3
Last Quarter
Feb 10
New
Feb 17
First Quarter

Hourly Weather History & Observations

Time (CST) Temp. Windchill Dew Point Humidity Pressure Visibility Wind Dir Wind Speed Gust Speed Precip Events Conditions
12:15 AM 37.4 °F 27.5 °F 26.6 °F 65% 29.94 in 10.0 mi SSW 18.4 mph 27.6 mph N/A   Clear
12:35 AM 37.4 °F 27.8 °F 26.6 °F 65% 29.95 in 10.0 mi SW 17.3 mph 26.5 mph N/A   Clear
12:55 AM 37.4 °F 26.9 °F 26.6 °F 65% 29.95 in 10.0 mi SW 20.7 mph 32.2 mph N/A   Clear
1:15 AM 37.4 °F 27.2 °F 26.6 °F 65% 29.96 in 10.0 mi SSW 19.6 mph 27.6 mph N/A   Clear
1:35 AM 37.4 °F 25.6 °F 26.6 °F 65% 29.96 in 10.0 mi SSW 26.5 mph 32.2 mph N/A   Clear
1:55 AM 39.2 °F 29.6 °F 28.4 °F 65% 29.96 in 10.0 mi SSW 19.6 mph 34.5 mph N/A   Clear
2:15 AM 39.2 °F 29.0 °F 28.4 °F 65% 29.96 in 10.0 mi SW 21.9 mph 32.2 mph N/A   Clear
2:35 AM 37.4 °F 26.4 °F 28.4 °F 70% 29.96 in 10.0 mi SW 23.0 mph 34.5 mph N/A   Clear
2:55 AM 37.4 °F 26.9 °F 28.4 °F 70% 29.96 in 10.0 mi SW 20.7 mph 28.8 mph N/A   Clear
3:15 AM 37.4 °F 27.5 °F 28.4 °F 70% 29.95 in 10.0 mi SSW 18.4 mph 27.6 mph N/A   Clear
3:35 AM 37.4 °F 26.9 °F 28.4 °F 70% 29.95 in 10.0 mi SW 20.7 mph 32.2 mph N/A   Clear
3:55 AM 37.4 °F 25.9 °F 28.4 °F 70% 29.95 in 10.0 mi SW 25.3 mph 35.7 mph N/A   Clear
4:15 AM 37.4 °F 28.2 °F 28.4 °F 70% 29.94 in 10.0 mi SW 16.1 mph 27.6 mph N/A   Clear
4:35 AM 37.4 °F 26.4 °F 28.4 °F 70% 29.94 in 10.0 mi SW 23.0 mph 29.9 mph N/A   Clear
4:55 AM 37.4 °F 27.5 °F 28.4 °F 70% 29.94 in 10.0 mi SW 18.4 mph 26.5 mph N/A   Clear
5:15 AM 37.4 °F 27.8 °F 28.4 °F 70% 29.94 in 10.0 mi SW 17.3 mph 29.9 mph N/A   Clear
5:35 AM 37.4 °F 27.8 °F 28.4 °F 70% 29.94 in 10.0 mi SW 17.3 mph 27.6 mph N/A   Clear
6:55 AM 37.4 °F 28.5 °F 28.4 °F 70% 29.93 in 10.0 mi SSW 15.0 mph 19.6 mph N/A   Clear
7:15 AM 37.4 °F 29.3 °F 28.4 °F 70% 29.92 in 10.0 mi SSW 12.7 mph - N/A   Clear
7:55 AM 39.2 °F 31.6 °F 28.4 °F 65% 29.92 in 10.0 mi SSW 12.7 mph 21.9 mph N/A   Clear
8:15 AM 39.2 °F 32.0 °F 28.4 °F 65% 29.92 in 10.0 mi SSW 11.5 mph 19.6 mph N/A   Clear
8:35 AM 41.0 °F 33.1 °F 28.4 °F 61% 29.92 in 10.0 mi SSW 15.0 mph 18.4 mph N/A   Scattered Clouds
9:35 AM 41.0 °F 33.9 °F 30.2 °F 65% 29.92 in 10.0 mi SSW 12.7 mph - N/A   Clear
9:55 AM 41.0 °F 33.9 °F 30.2 °F 65% 29.92 in 10.0 mi SSW 12.7 mph 19.6 mph N/A   Clear
10:15 AM 41.0 °F 33.9 °F 30.2 °F 65% 29.91 in 10.0 mi SSW 12.7 mph 21.9 mph N/A   Clear
10:35 AM 42.8 °F 34.8 °F 30.2 °F 61% 29.89 in 10.0 mi SW 17.3 mph 21.9 mph N/A   Clear
10:55 AM 42.8 °F 35.8 °F 30.2 °F 61% 29.87 in 10.0 mi SSW 13.8 mph 25.3 mph N/A   Clear
11:15 AM 44.6 °F 36.4 °F 30.2 °F 57% 29.85 in 10.0 mi SW 20.7 mph 26.5 mph N/A   Clear
11:35 AM 46.4 °F 41.1 °F 32.0 °F 57% 29.84 in 10.0 mi SW 11.5 mph 25.3 mph N/A   Clear
11:55 AM 48.2 °F - 30.2 °F 50% 29.82 in 10.0 mi SSW 19.6 mph 24.2 mph N/A   Clear
12:15 PM 50.0 °F - 32.0 °F 50% 29.81 in 10.0 mi SW 13.8 mph 19.6 mph N/A   Clear
12:35 PM 48.2 °F - 30.2 °F 50% 29.79 in 10.0 mi SW 19.6 mph 24.2 mph N/A   Clear
12:55 PM 46.4 °F 39.2 °F 32.0 °F 57% 29.79 in 10.0 mi SSW 18.4 mph 26.5 mph N/A   Clear
1:15 PM 46.4 °F 39.2 °F 32.0 °F 57% 29.78 in 10.0 mi SSW 18.4 mph 25.3 mph N/A   Clear
1:35 PM 44.6 °F 36.9 °F 32.0 °F 61% 29.78 in 10.0 mi SW 18.4 mph 27.6 mph N/A   Clear
1:55 PM 46.4 °F 42.4 °F 32.0 °F 57% 29.78 in 10.0 mi SW 8.1 mph 18.4 mph N/A   Clear
2:15 PM 46.4 °F 41.1 °F 32.0 °F 57% 29.77 in 10.0 mi SW 11.5 mph 21.9 mph N/A   Clear
2:55 PM 46.4 °F 39.8 °F 32.0 °F 57% 29.74 in 10.0 mi SSW 16.1 mph 23.0 mph N/A   Overcast
3:15 PM 46.4 °F 39.0 °F 32.0 °F 57% 29.75 in 10.0 mi SSW 19.6 mph 28.8 mph N/A   Scattered Clouds
3:35 PM 46.4 °F 40.4 °F 32.0 °F 57% 29.76 in 10.0 mi SW 13.8 mph 26.5 mph N/A   Clear
3:55 PM 46.4 °F 40.1 °F 32.0 °F 57% 29.75 in 10.0 mi SW 15.0 mph 24.2 mph N/A   Clear
4:15 PM 46.4 °F 39.5 °F 32.0 °F 57% 29.74 in 10.0 mi SSW 17.3 mph 26.5 mph N/A   Clear
4:35 PM 44.6 °F 37.4 °F 32.0 °F 61% 29.75 in 10.0 mi SW 16.1 mph 24.2 mph N/A   Clear
4:55 PM 44.6 °F 38.4 °F 32.0 °F 61% 29.75 in 10.0 mi SW 12.7 mph 20.7 mph N/A   Clear
5:15 PM 44.6 °F 39.2 °F 33.8 °F 66% 29.76 in 10.0 mi SW 10.4 mph 16.1 mph N/A   Clear
5:35 PM 42.8 °F 36.2 °F 33.8 °F 70% 29.76 in 10.0 mi SW 12.7 mph - N/A   Clear
5:55 PM 42.8 °F 36.2 °F 33.8 °F 70% 29.77 in 10.0 mi SW 12.7 mph 18.4 mph N/A   Clear
6:15 PM 42.8 °F 36.6 °F 33.8 °F 70% 29.77 in 10.0 mi SW 11.5 mph 18.4 mph N/A   Clear
6:35 PM 42.8 °F 36.6 °F 33.8 °F 70% 29.76 in 10.0 mi SW 11.5 mph 17.3 mph N/A   Clear
6:55 PM 42.8 °F 36.6 °F 33.8 °F 70% 29.75 in 10.0 mi SW 11.5 mph 18.4 mph N/A   Clear
7:15 PM 42.8 °F 36.6 °F 33.8 °F 70% 29.75 in 10.0 mi SW 11.5 mph 17.3 mph N/A   Clear
7:35 PM 42.8 °F 35.8 °F 33.8 °F 70% 29.76 in 10.0 mi WSW 13.8 mph 19.6 mph N/A   Clear
7:55 PM 42.8 °F 36.2 °F 33.8 °F 70% 29.76 in 10.0 mi WSW 12.7 mph 24.2 mph N/A   Scattered Clouds
8:15 PM 44.6 °F 37.4 °F 32.0 °F 61% 29.75 in 10.0 mi WSW 16.1 mph 28.8 mph N/A   Overcast
8:55 PM 44.6 °F 36.4 °F 32.0 °F 61% 29.75 in 10.0 mi West 20.7 mph 29.9 mph N/A   Scattered Clouds
9:15 PM 44.6 °F 37.2 °F 30.2 °F 57% 29.76 in 10.0 mi West 17.3 mph 36.8 mph N/A   Clear
9:35 PM 42.8 °F 34.0 °F 30.2 °F 61% 29.77 in 10.0 mi West 20.7 mph 35.7 mph N/A   Scattered Clouds
9:55 PM 41.0 °F 32.5 °F 30.2 °F 65% 29.78 in 10.0 mi West 17.3 mph 28.8 mph N/A   Mostly Cloudy
10:15 PM 41.0 °F 33.1 °F 30.2 °F 65% 29.78 in 10.0 mi West 15.0 mph 25.3 mph N/A   Mostly Cloudy
10:35 PM 39.2 °F 29.0 °F 26.6 °F 61% 29.79 in 10.0 mi West 21.9 mph 36.8 mph N/A   Scattered Clouds
10:55 PM 37.4 °F 27.8 °F 19.4 °F 48% 29.79 in 10.0 mi West 17.3 mph 34.5 mph N/A   Clear
11:15 PM 37.4 °F 26.6 °F 21.2 °F 52% 29.80 in 10.0 mi West 21.9 mph 41.4 mph N/A   Clear
11:35 PM 35.6 °F 24.2 °F 19.4 °F 52% 29.82 in 10.0 mi West 21.9 mph 35.7 mph N/A   Clear
11:55 PM 32.0 °F 19.5 °F 15.8 °F 51% 29.85 in 10.0 mi WNW 21.9 mph 36.8 mph N/A   Clear